Bastrop, LA

7:11 AM CDT on April 25, 2017 (GMT -0500)
Bastrop

Weather History for KBQP - June, 2013

Change the Weather History Date:

Sunday, June 16, 2013

  Actual Average (KMLU) Record (KMLU)
Temperature  
Mean Temperature 81 °F -  
Max Temperature 91 °F 90 °F 102 °F (1936)
Min Temperature 71 °F 70 °F 55 °F (1933)
Cooling Degree Days 16    
Growing Degree Days 31 (Base 50)    
Moisture  
Dew Point 73 °F    
Average Humidity 81    
Maximum Humidity 92    
Minimum Humidity 59    
Precipitation  
Precipitation 0.20 in - - ()
Sea Level Pressure  
Sea Level Pressure 30.00 in    
Wind  
Wind Speed 1 mph (SSW)    
Max Wind Speed 16 mph    
Max Gust Speed 31 mph    
Visibility 9 miles    
Events Rain , Thunderstorm    
Averages and records for this station are not official NWS values.
T = Trace of Precipitation, MM = Missing Value Source: NWS Daily Summary

Daily Weather History Graph

Daily Weather History Graph

Search for Another Location

Airport or City:

Trip Planner

Search our weather history database for the weather conditions in past years. The results will help you decide how hot, cold, wet, or windy it might be!

Date:

Astronomy

Jun. 16, 2013 Rise Set
Actual Time 5:59 AM CDT 8:17 PM CDT
Civil Twilight 5:30 AM CDT 8:46 PM CDT
Nautical Twilight 4:55 AM CDT 9:21 PM CDT
Astronomical Twilight 4:17 AM CDT 9:59 PM CDT
Moon 1:12 PM CDT (6/16) 12:43 AM CDT (6/16)
Length of Visible Light 15h 15m
Length of Day
14h 18m
Waxing Crescent, 50% of the Moon is Illuminated
Jun 16
Waxing Crescent
Jun 16
First Quarter
Jun 23
Full
Jun 29
Last Quarter
Jul 8
New

Hourly Weather History & Observations

Time (CDT) Temp. Heat Index Dew Point Humidity Pressure Visibility Wind Dir Wind Speed Gust Speed Precip Events Conditions
12:15 AM 72.1 °F - 68.2 °F 87% 30.01 in 10.0 mi Calm Calm - N/A   Clear
12:35 AM 71.8 °F - 68.2 °F 88% 30.00 in 10.0 mi Calm Calm - N/A   Clear
12:55 AM 73.0 °F - 68.9 °F 87% 30.00 in 10.0 mi Calm Calm - N/A   Clear
1:15 AM 73.4 °F - 68.9 °F 86% 29.99 in 10.0 mi Calm Calm - N/A   Clear
1:35 AM 73.8 °F - 68.9 °F 85% 29.99 in 10.0 mi Calm Calm - N/A   Clear
1:55 AM 73.6 °F - 68.9 °F 85% 29.98 in 10.0 mi Calm Calm - N/A   Clear
2:15 AM 74.1 °F - 69.1 °F 84% 29.98 in 10.0 mi Calm Calm - N/A   Clear
2:35 AM 73.6 °F - 69.3 °F 86% 29.97 in 10.0 mi Calm Calm - N/A   Clear
2:55 AM 73.6 °F - 69.3 °F 86% 29.97 in 10.0 mi Calm Calm - N/A   Clear
3:15 AM 73.4 °F - 69.4 °F 87% 29.97 in 10.0 mi Calm Calm - N/A   Clear
3:35 AM 73.4 °F - 69.4 °F 87% 29.97 in 10.0 mi Calm Calm - N/A   Clear
3:55 AM 73.4 °F - 69.3 °F 87% 29.97 in 10.0 mi Calm Calm - N/A   Clear
4:15 AM 74.7 °F - 69.4 °F 84% 29.97 in 10.0 mi Calm Calm - N/A   Clear
4:35 AM 74.5 °F - 69.6 °F 85% 29.97 in 10.0 mi Calm Calm - N/A   Clear
4:55 AM 73.9 °F - 69.8 °F 87% 29.98 in 10.0 mi Calm Calm - N/A   Clear
5:15 AM 73.9 °F - 69.8 °F 87% 29.99 in 10.0 mi Calm Calm - N/A   Clear
5:35 AM 73.8 °F - 70.0 °F 88% 29.99 in 10.0 mi Calm Calm - N/A   Clear
5:55 AM 74.7 °F - 70.2 °F 86% 29.99 in 4.0 mi Calm Calm - N/A   Haze
6:15 AM 74.3 °F - 70.3 °F 87% 30.01 in 10.0 mi Calm Calm - N/A   Clear
6:35 AM 74.7 °F - 70.5 °F 87% 30.01 in 10.0 mi Calm Calm - N/A   Clear
6:55 AM 75.0 °F - 71.6 °F 89% 30.02 in 7.0 mi Calm Calm - N/A   Scattered Clouds
7:15 AM 75.4 °F - 71.4 °F 87% 30.03 in 7.0 mi Calm Calm - N/A   Scattered Clouds
7:35 AM 76.6 °F - 72.5 °F 87% 30.03 in 7.0 mi Calm Calm - N/A   Clear
7:55 AM 77.7 °F - 72.3 °F 83% 30.04 in 10.0 mi Calm Calm - N/A   Scattered Clouds
8:15 AM 79.0 °F - 72.7 °F 81% 30.04 in 10.0 mi Calm Calm - N/A   Scattered Clouds
8:35 AM 79.9 °F - 73.0 °F 80% 30.04 in 10.0 mi Calm Calm - N/A   Mostly Cloudy
8:55 AM 81.3 °F 87.0 °F 74.1 °F 79% 30.04 in 10.0 mi Calm Calm - N/A   Scattered Clouds
9:15 AM 83.5 °F 91.2 °F 75.0 °F 76% 30.04 in 10.0 mi Calm Calm - N/A   Scattered Clouds
9:35 AM 83.8 °F 91.8 °F 75.2 °F 75% 30.03 in 10.0 mi Calm Calm - N/A   Clear
9:55 AM 84.7 °F 93.6 °F 75.7 °F 74% 30.03 in 10.0 mi Calm Calm - N/A   Clear
10:15 AM 86.9 °F 97.8 °F 76.3 °F 71% 30.03 in 10.0 mi Calm Calm - N/A   Clear
10:35 AM 87.6 °F 97.6 °F 75.4 °F 67% 30.03 in 10.0 mi Calm Calm - N/A   Clear
10:55 AM 87.8 °F 97.6 °F 75.0 °F 66% 30.03 in 10.0 mi Calm Calm - N/A   Scattered Clouds
11:15 AM 90.1 °F 101.8 °F 75.9 °F 63% 30.02 in 10.0 mi SW 4.6 mph - N/A   Scattered Clouds
11:35 AM 89.4 °F 100.0 °F 75.2 °F 63% 30.02 in 10.0 mi Calm Calm - N/A   Scattered Clouds
11:55 AM 91.2 °F 102.0 °F 75.2 °F 59% 30.01 in 10.0 mi Calm Calm - N/A   Clear
12:15 PM 91.4 °F 102.5 °F 75.2 °F 59% 30.01 in 10.0 mi SW 4.6 mph - N/A   Scattered Clouds
12:35 PM 91.0 °F 102.2 °F 75.4 °F 60% 30.01 in 10.0 mi Calm Calm - N/A   Scattered Clouds
12:55 PM 91.0 °F 102.2 °F 75.4 °F 60% 30.02 in 10.0 mi SW 4.6 mph - N/A   Scattered Clouds
1:15 PM 90.9 °F 102.4 °F 75.6 °F 61% 30.01 in 10.0 mi Calm Calm - N/A   Scattered Clouds
1:35 PM 89.6 °F 101.0 °F 75.7 °F 64% 30.01 in 10.0 mi Calm Calm - N/A Thunderstorm Thunderstorm
1:55 PM 88.7 °F 99.8 °F 76.1 °F 66% 30.00 in 10.0 mi Calm Calm - N/A Thunderstorm Clear
2:15 PM 87.4 °F 99.2 °F 76.8 °F 71% 30.02 in 10.0 mi Calm Calm - N/A Thunderstorm Scattered Clouds
2:35 PM 84.9 °F 93.3 °F 75.0 °F 72% 30.00 in 10.0 mi Calm Calm - N/A Rain , Thunderstorm Light Thunderstorms and Rain
2:55 PM 83.5 °F 89.7 °F 73.2 °F 71% 30.04 in 10.0 mi West 12.7 mph 25.3 mph N/A Thunderstorm Thunderstorm
3:15 PM 76.6 °F - 71.2 °F 83% 30.05 in 7.0 mi WNW 16.1 mph 31.1 mph 0.02 in Rain , Thunderstorm Heavy Thunderstorms and Rain
3:35 PM 74.7 °F - 70.5 °F 87% 30.01 in 2.5 mi Calm Calm - 0.18 in Rain , Thunderstorm Thunderstorms and Rain
3:55 PM 74.8 °F - 71.4 °F 89% 30.00 in 10.0 mi Calm Calm - 0.19 in Rain , Thunderstorm Light Thunderstorms and Rain
4:15 PM 75.0 °F - 71.6 °F 89% 29.98 in 10.0 mi Calm Calm - 0.01 in Rain Light Rain
4:35 PM 75.9 °F - 72.9 °F 90% 29.99 in 7.0 mi Calm Calm - 0.01 in Rain , Thunderstorm Light Thunderstorms and Rain
4:55 PM 77.5 °F - 73.4 °F 87% 29.98 in 10.0 mi Calm Calm - 0.01 in   Clear
5:15 PM 79.0 °F - 74.3 °F 85% 29.99 in 10.0 mi Calm Calm - N/A   Clear
5:35 PM 79.2 °F - 73.8 °F 83% 30.00 in 10.0 mi East 3.5 mph - N/A   Clear
5:55 PM 79.2 °F - 73.0 °F 81% 30.00 in 10.0 mi East 6.9 mph - N/A   Clear
6:15 PM 80.6 °F 85.4 °F 73.6 °F 79% 30.00 in 10.0 mi East 5.8 mph - N/A   Clear
6:35 PM 81.0 °F 86.2 °F 73.8 °F 79% 29.99 in 10.0 mi Calm Calm - N/A   Clear
6:55 PM 80.6 °F 85.7 °F 74.1 °F 81% 29.99 in 10.0 mi Calm Calm - N/A   Clear
7:15 PM 80.6 °F 85.9 °F 74.5 °F 82% 29.99 in 10.0 mi Calm Calm - N/A   Clear
7:35 PM 79.9 °F - 74.5 °F 83% 29.98 in 10.0 mi Calm Calm - N/A   Clear
7:55 PM 77.9 °F - 74.3 °F 89% 29.97 in 7.0 mi Calm Calm - N/A   Clear
8:15 PM 77.0 °F - 74.1 °F 91% 29.97 in 4.0 mi Calm Calm - N/A   Clear
8:35 PM 76.1 °F - 73.4 °F 91% 29.97 in 4.0 mi Calm Calm - N/A   Clear
8:55 PM 75.6 °F - 73.2 °F 92% 29.98 in 3.0 mi Calm Calm - N/A   Clear
9:15 PM 75.2 °F - 72.7 °F 92% 29.97 in 3.0 mi Calm Calm - N/A   Clear
9:35 PM 74.7 °F - 72.1 °F 92% 29.99 in 2.0 mi Calm Calm - N/A   Clear
10:15 PM 74.5 °F - 72.0 °F 92% 29.99 in 5.0 mi Calm Calm - N/A   Clear
10:35 PM 74.5 °F - 72.1 °F 92% 29.98 in 5.0 mi Calm Calm - N/A   Clear
10:55 PM 75.2 °F - 72.5 °F 91% 29.99 in 7.0 mi Calm Calm - N/A   Clear
11:15 PM 74.5 °F - 72.0 °F 92% 29.99 in 4.0 mi Calm Calm - N/A   Clear
11:35 PM 75.2 °F - 72.5 °F 91% 29.99 in 7.0 mi Calm Calm - N/A   Clear
11:55 PM 75.7 °F - 72.5 °F 90% 29.99 in 10.0 mi Calm Calm - N/A   Clear